Volver al catálogo

STARLINK-31611

ActivoComunicacionesVLEO
NORAD 59325·PAYLOAD·🇺🇸 United States

Lanzado Mar 25, 2024 desde Cape Canaveral Space Force Station

Loading…

Próximos Pases (próximas 24 horas)

TLE

ActualizadoSource: CelesTrak SupGP

Época: Sep 15, 2026, 01:56 UTC

1 59325C 24057F   26258.08104167 -.00062325  00000+0 -22578-2 0  2585
2 59325  43.0001 197.9052 0001279 271.6915 291.2370 15.27603459    14

Sigue STARLINK-31611 en tiempo real con AllMySat

Download on the App Store